TimeCDT,TemperatureF,Dew PointF,Humidity,Sea Level PressureIn,VisibilityMPH,Wind Direction,Wind SpeedMPH,Gust SpeedMPH,PrecipitationIn,Events,Conditions,WindDirDegrees,DateUTC
12:53 AM,37.0,35.1,93,30.11,10.0,Calm,Calm,-,N/A,,Clear,0,2013-04-20 05:53:00
1:53 AM,35.1,34.0,96,30.11,10.0,Calm,Calm,-,N/A,,Clear,0,2013-04-20 06:53:00
2:53 AM,35.1,33.1,92,30.11,10.0,Calm,Calm,-,N/A,,Clear,0,2013-04-20 07:53:00
3:53 AM,33.1,32.0,96,30.12,10.0,Calm,Calm,-,N/A,,Clear,0,2013-04-20 08:53:00
4:53 AM,33.1,32.0,96,30.12,10.0,Calm,Calm,-,N/A,,Clear,0,2013-04-20 09:53:00
5:53 AM,33.1,32.0,96,30.13,10.0,Calm,Calm,-,N/A,,Clear,0,2013-04-20 10:53:00
6:53 AM,33.1,32.0,96,30.14,10.0,Calm,Calm,-,N/A,,Clear,0,2013-04-20 11:53:00
7:53 AM,41.0,36.0,82,30.16,10.0,Calm,Calm,-,N/A,,Clear,0,2013-04-20 12:53:00
8:53 AM,46.0,37.0,71,30.17,10.0,East,4.6,-,N/A,,Clear,90,2013-04-20 13:53:00
9:53 AM,48.9,39.0,69,30.17,10.0,SE,5.8,-,N/A,,Clear,130,2013-04-20 14:53:00
10:53 AM,55.0,39.9,57,30.18,10.0,ESE,6.9,-,N/A,,Clear,120,2013-04-20 15:53:00
11:53 AM,62.1,39.0,43,30.16,10.0,Variable,5.8,-,N/A,,Clear,0,2013-04-20 16:53:00
12:53 PM,64.0,36.0,35,30.12,10.0,Variable,3.5,-,N/A,,Clear,0,2013-04-20 17:53:00
1:53 PM,64.9,37.9,37,30.11,10.0,SSE,11.5,-,N/A,,Clear,150,2013-04-20 18:53:00
2:53 PM,64.9,37.9,37,30.09,10.0,SSE,9.2,-,N/A,,Clear,150,2013-04-20 19:53:00
3:53 PM,68.0,39.0,35,30.06,10.0,SSE,13.8,-,N/A,,Clear,150,2013-04-20 20:53:00
4:53 PM,69.1,37.9,32,30.03,10.0,ESE,13.8,-,N/A,,Clear,120,2013-04-20 21:53:00
5:53 PM,69.1,32.0,25,30.02,10.0,SSE,18.4,25.3,N/A,,Clear,160,2013-04-20 22:53:00
6:53 PM,66.9,32.0,27,30.03,10.0,SSE,15.0,25.3,N/A,,Clear,160,2013-04-20 23:53:00
7:53 PM,64.0,33.1,31,30.05,10.0,SSE,9.2,19.6,N/A,,Clear,160,2013-04-21 00:53:00
8:53 PM,59.0,36.0,42,30.07,10.0,SSE,5.8,-,N/A,,Clear,150,2013-04-21 01:53:00
9:53 PM,55.9,37.0,49,30.11,10.0,SE,6.9,-,N/A,,Clear,140,2013-04-21 02:53:00
10:53 PM,55.0,37.9,53,30.11,10.0,SSE,4.6,-,N/A,,Clear,160,2013-04-21 03:53:00
11:53 PM,55.0,37.9,53,30.12,10.0,Calm,Calm,-,N/A,,Partly Cloudy,0,2013-04-21 04:53:00